[[{"header":{"parameterUnit":"m.s-1","parameterCategory":1,"la1":30.2991,"la2":30.254,"lo1":-89.0895,"lo2":-89.0444,"dy":0.0017,"dx":0.0017,"nx":28,"ny":28,"refTime":"2023-09-07T21:00:00:Z","depth":0,"parameterNumber":2,"parameterNumberName":"U-component_of_WINDS"},"data":[0,0,0,0,0,0,0,0,0,0,0,0,0,0,0,0,0,0,0,0,0,0,0,0,0,0,0,0,0,0,0,0,0,0,0,0,0,0,0,0,0,0,0,0,0,0,0,0,0,0,0,0,0,0,0,0,0,0,1.068,1.068,0,1.0707,1.0707,1.0708,1.0688,1.0687,1.0686,1.0685,1.0713,1.0715,1.0716,0,0,0,0,0,0,0,0,0,0,0,0,0,1.0613,1.0614,1.068,1.0681,1.0681,1.0707,1.0707,1.0708,1.0688,1.0687,1.0686,1.0685,1.0713,1.0715,1.0717,0,0,0,0,0,0,0,0,0,0,0,0,0,1.0641,1.0615,1.068,1.0674,1.0674,1.0707,1.0707,1.0708,1.0688,1.0687,1.0686,1.0685,1.0712,1.0714,1.0717,1.0757,0,0,1.0724,1.0725,0,0,0,0,0,0,0,0,1.064,1.0644,1.0675,1.0675,1.0674,1.0693,1.0694,1.0724,1.0689,1.0683,1.0685,1.0684,1.0708,1.071,1.0718,1.0758,1.0759,1.0724,1.0725,1.0726,1.0727,0,0,0,0,0,0,0,1.0638,1.0642,1.0691,1.0675,1.0675,1.0671,1.0673,1.0699,1.0702,1.0683,1.0682,1.0685,1.0707,1.0716,1.0719,1.076,1.0724,1.0726,1.0727,1.0728,1.0835,1.0836,0,0,0,0,0,0,1.0636,1.0641,1.069,1.0692,1.0654,1.0673,1.0676,1.0688,1.0702,1.0703,1.0686,1.0684,1.0713,1.0716,1.0719,1.0768,1.0726,1.0729,1.073,1.0833,1.0835,1.0837,0,0,0,0,0,0,1.0635,1.0641,1.0689,1.0666,1.0672,1.0675,1.069,1.0689,1.0698,1.0704,1.0705,1.0695,1.0712,1.0716,1.0748,1.0768,1.073,1.0732,1.0832,1.0834,1.0836,1.0864,0,0,0,0,0,0,1.0633,1.064,1.0655,1.0666,1.0673,1.0717,1.0691,1.0691,1.0702,1.07,1.0712,1.0713,1.0711,1.0745,1.075,1.0771,1.0734,1.083,1.0833,1.0835,1.0862,1.0867,1.0872,0,0,0,0,0,1.0631,1.0662,1.0656,1.0662,1.0692,1.0718,1.0722,1.0719,1.0704,1.0719,1.0723,1.0713,1.0765,1.0748,1.0754,1.0776,1.0829,1.0832,1.0835,1.0859,1.0866,1.0872,0,0,0,0,0,0,1.0654,1.0664,1.0657,1.0693,1.0705,1.0714,1.0734,1.0726,1.0742,1.0739,1.0735,1.0738,1.0771,1.0777,1.0757,1.0816,1.0795,1.0799,1.0811,1.0818,1.0823,1.0821,1.0735,0,0,0,0,0,1.0663,1.0683,1.0691,1.0722,1.0728,1.073,1.0741,1.0738,1.075,1.0755,1.0761,1.0773,1.0792,1.0805,1.0823,1.0862,1.0865,1.088,1.0886,1.089,1.0894,1.0916,1.0923,1.0847,1.0847,1.0847,0,0,1.0683,1.069,1.0703,1.0727,1.0735,1.0757,1.0734,1.0757,1.0773,1.0758,1.0788,1.0794,1.0807,1.0843,1.0859,1.0848,1.0916,1.0894,1.0897,1.0899,1.092,1.0927,1.0933,1.085,1.0849,1.0849,0,0,1.0729,1.0737,1.0764,1.0773,1.0786,1.0787,1.0794,1.0805,1.0808,1.0838,1.0827,1.0846,1.0879,1.0889,1.0899,1.095,1.0941,1.0956,1.0983,1.1004,1.101,1.1015,1.1034,1.1041,1.096,1.096,1.096,0,1.0751,1.0783,1.0779,1.0803,1.0814,1.0801,1.0829,1.0838,1.0856,1.0864,1.0852,1.0894,1.0902,1.094,1.0953,1.0961,1.0969,1.0954,1.101,1.1015,1.102,1.1037,1.1044,1.0962,1.0961,1.0961,1.0961,0,1.081,1.0832,1.0852,1.087,1.0884,1.0909,1.091,1.0923,1.0919,1.0922,1.0953,1.0962,1.0982,1.0991,1.0987,1.1029,1.1022,1.101,1.0989,1.1029,1.1045,1.1052,1.0964,1.0964,1.0963,1.0963,0,0,1.0871,1.0887,1.0895,1.0903,1.0917,1.0934,1.096,1.0979,1.0991,1.1005,1.1026,1.1055,1.1044,1.1055,1.1052,1.1071,1.1111,1.1056,1.1057,1.1066,1.1158,1.1168,1.1176,1.1105,1.1106,1.1107,1.1157,0,1.0919,1.0963,1.096,1.1002,1.1022,1.1011,1.1033,1.1044,1.1047,1.1065,1.1069,1.109,1.1073,1.108,1.1098,1.1102,1.1129,1.1099,1.1125,1.1126,1.1123,1.1184,1.1194,1.1241,1.1164,1.1165,1.1166,0,1.098,1.0995,1.1039,1.105,1.1059,1.1079,1.1097,1.1114,1.1127,1.1128,1.114,1.1134,1.1161,1.1139,1.1175,1.1154,1.1165,1.1169,1.1171,1.1173,1.1149,1.1189,1.1255,1.1263,1.1176,1.1175,1.1174,0,1.1021,1.1053,1.1083,1.1091,1.1104,1.1119,1.1125,1.1137,1.1149,1.1165,1.1173,1.1191,1.1202,1.1216,1.1216,1.12,1.1253,1.1231,1.1255,1.1255,1.1267,1.1266,1.1337,1.1274,1.1273,1.1273,1.1273,0,1.1074,1.1102,1.1102,1.1121,1.1151,1.1148,1.1178,1.1183,1.1193,1.1213,1.1204,1.1223,1.1221,1.1241,1.1241,1.1271,1.1276,1.1278,1.1277,1.1279,1.1279,1.1286,1.1283,1.1275,1.1275,1.1274,1.1274,0,1.1125,1.1127,1.1159,1.117,1.1173,1.1195,1.1204,1.1222,1.1225,1.125,1.1256,1.126,1.1282,1.1283,1.1308,1.1308,1.1346,1.1341,1.1341,1.1341,1.1365,1.1363,1.1443,1.1454,1.1383,1.1384,1.1384,0,1.116,1.118,1.1193,1.1206,1.1213,1.1233,1.1246,1.1244,1.1257,1.1273,1.1289,1.1311,1.1328,1.1364,1.1369,1.1389,1.1385,1.1412,1.1388,1.1389,1.1387,1.1386,1.1388,1.1417,1.1418,1.1418,1.1419,0,1.122,1.122,1.1238,1.1256,1.1271,1.1286,1.1299,1.131,1.131,1.1325,1.1348,1.1361,1.1387,1.1408,1.1428,1.1435,1.1427,1.1426,1.1433,1.1435,1.1434,1.1436,1.1355,1.1425,1.1424,1.1424,1.1423,1.1423,1.1264,1.1283,1.1295,1.1315,1.1325,1.1338,1.1355,1.136,1.1379,1.14,1.1397,1.1423,1.1435,1.146,1.1469,1.1489,1.148,1.149,1.1492,1.1495,1.1498,1.1431,1.1492,1.1492,1.1492,1.1492,1.1492,0,1.1325,1.1332,1.1351,1.137,1.1387,1.1378,1.1392,1.1407,1.1429,1.1441,1.1458,1.1484,1.1505,1.1512,1.1533,1.1548,1.1545,1.1553,1.1552,1.1554,1.1504,1.1497,1.1555,1.1555,1.1555,1.1555,1.1555,1.1555,1.1359,1.1389,1.139,1.1426,1.1433,1.1457,1.1466,1.1478,1.1488,1.1518,1.1535,1.154,1.155,1.1571,1.1591,1.1592,1.16,1.161,1.1611,1.1564,1.1558,1.1552,1.1544,1.1612,1.1612,1.1659,1.166,1.166]},{"header":{"parameterUnit":"m.s-1","parameterCategory":1,"la1":30.2991,"la2":30.254,"lo1":-89.0895,"lo2":-89.0444,"dy":0.0017,"dx":0.0017,"nx":28,"ny":28,"refTime":"2023-09-07T21:00:00:Z","depth":0,"parameterNumber":3,"parameterNumberName":"V-component_of_WINDS"},"data":[0,0,0,0,0,0,0,0,0,0,0,0,0,0,0,0,0,0,0,0,0,0,0,0,0,0,0,0,0,0,0,0,0,0,0,0,0,0,0,0,0,0,0,0,0,0,0,0,0,0,0,0,0,0,0,0,0,0,-2.034,-2.0341,0,-2.0424,-2.0425,-2.0426,-2.0424,-2.0423,-2.0422,-2.042,-2.0506,-2.0509,-2.0512,0,0,0,0,0,0,0,0,0,0,0,0,0,-2.0178,-2.0181,-2.034,-2.0341,-2.0342,-2.0424,-2.0425,-2.0426,-2.0424,-2.0423,-2.0421,-2.042,-2.0505,-2.0509,-2.0513,0,0,0,0,0,0,0,0,0,0,0,0,0,-2.0254,-2.0182,-2.034,-2.0351,-2.0353,-2.0423,-2.0425,-2.0426,-2.0424,-2.0423,-2.0421,-2.0419,-2.0503,-2.0508,-2.0513,-2.0578,0,0,-2.0529,-2.0531,0,0,0,0,0,0,0,0,-2.025,-2.026,-2.0348,-2.035,-2.0352,-2.0412,-2.0399,-2.0477,-2.0425,-2.0397,-2.042,-2.0418,-2.0476,-2.0483,-2.0502,-2.0582,-2.0586,-2.0529,-2.0532,-2.0534,-2.0536,0,0,0,0,0,0,0,-2.0244,-2.0256,-2.0373,-2.0349,-2.0352,-2.0352,-2.0361,-2.0414,-2.0445,-2.0399,-2.0399,-2.0409,-2.0477,-2.0498,-2.0504,-2.0587,-2.0529,-2.0533,-2.0536,-2.0538,-2.0725,-2.0727,0,0,0,0,0,0,-2.0237,-2.0252,-2.037,-2.0375,-2.0296,-2.0356,-2.0366,-2.0394,-2.0444,-2.045,-2.0411,-2.0409,-2.049,-2.0499,-2.0507,-2.0587,-2.0534,-2.0539,-2.0542,-2.0723,-2.0726,-2.0728,0,0,0,0,0,0,-2.0233,-2.0247,-2.0367,-2.0314,-2.0329,-2.0361,-2.0392,-2.0397,-2.0418,-2.0453,-2.0459,-2.0426,-2.0489,-2.05,-2.0561,-2.059,-2.0541,-2.0546,-2.0721,-2.0724,-2.0727,-2.0747,0,0,0,0,0,0,-2.0229,-2.0246,-2.0271,-2.0314,-2.0332,-2.0419,-2.0394,-2.04,-2.0426,-2.0425,-2.0469,-2.0475,-2.0488,-2.0553,-2.0566,-2.0596,-2.055,-2.0718,-2.0722,-2.0726,-2.0744,-2.075,-2.0756,0,0,0,0,0,-2.0223,-2.0273,-2.0272,-2.0286,-2.0363,-2.042,-2.043,-2.0445,-2.0429,-2.0454,-2.0477,-2.0473,-2.0585,-2.056,-2.0574,-2.0606,-2.0717,-2.0721,-2.0725,-2.0741,-2.0749,-2.0755,0,0,0,0,0,0,-2.0232,-2.0279,-2.0278,-2.0344,-2.0378,-2.042,-2.0452,-2.0453,-2.0492,-2.0489,-2.0506,-2.0516,-2.0576,-2.0597,-2.0568,-2.0672,-2.0649,-2.0656,-2.0656,-2.0664,-2.0669,-2.0663,-2.0554,0,0,0,0,0,-2.0241,-2.0284,-2.0323,-2.0377,-2.0394,-2.042,-2.0446,-2.0454,-2.049,-2.0505,-2.0532,-2.0567,-2.061,-2.0638,-2.0679,-2.0747,-2.0757,-2.0776,-2.0782,-2.0787,-2.0793,-2.0831,-2.084,-2.0742,-2.0742,-2.0742,0,0,-2.0262,-2.0293,-2.0318,-2.0379,-2.0407,-2.0451,-2.0432,-2.0479,-2.0512,-2.0512,-2.0571,-2.0592,-2.0632,-2.0697,-2.0726,-2.0716,-2.0822,-2.0792,-2.0796,-2.0799,-2.0836,-2.0845,-2.0853,-2.0745,-2.0745,-2.0744,0,0,-2.0321,-2.0348,-2.0397,-2.0425,-2.0467,-2.0485,-2.0496,-2.0538,-2.0553,-2.0612,-2.0613,-2.0652,-2.0726,-2.0755,-2.0779,-2.085,-2.0849,-2.0864,-2.0894,-2.0931,-2.0939,-2.0946,-2.0972,-2.0981,-2.087,-2.087,-2.087,0,-2.034,-2.0406,-2.0422,-2.0469,-2.0496,-2.0499,-2.0548,-2.0575,-2.0628,-2.0647,-2.0634,-2.0727,-2.0755,-2.0826,-2.0844,-2.0863,-2.0877,-2.0858,-2.0937,-2.0944,-2.095,-2.0975,-2.0985,-2.0871,-2.0871,-2.0871,-2.0871,0,-2.0429,-2.0474,-2.0509,-2.0561,-2.0592,-2.064,-2.0662,-2.0692,-2.0698,-2.0717,-2.0778,-2.0811,-2.0859,-2.0877,-2.0883,-2.095,-2.0942,-2.0933,-2.091,-2.0961,-2.0984,-2.0994,-2.0873,-2.0873,-2.0872,-2.0872,0,0,-2.0495,-2.0556,-2.0568,-2.0592,-2.0639,-2.0675,-2.0723,-2.0771,-2.0796,-2.0834,-2.0875,-2.0938,-2.093,-2.0957,-2.0967,-2.0999,-2.1054,-2.0987,-2.0988,-2.0998,-2.113,-2.1137,-2.1147,-2.1054,-2.1056,-2.1057,-2.1127,0,-2.0559,-2.0645,-2.0661,-2.0736,-2.0779,-2.0783,-2.0825,-2.0859,-2.0878,-2.0917,-2.0938,-2.0982,-2.0968,-2.0985,-2.1017,-2.1041,-2.1081,-2.1036,-2.1092,-2.1094,-2.1082,-2.116,-2.1166,-2.1231,-2.1136,-2.1138,-2.1139,0,-2.0645,-2.0685,-2.0765,-2.0807,-2.0826,-2.0863,-2.0909,-2.0946,-2.0985,-2.0997,-2.1028,-2.1034,-2.1085,-2.106,-2.1131,-2.11,-2.1124,-2.1139,-2.1142,-2.1148,-2.1119,-2.1167,-2.1251,-2.1261,-2.1154,-2.1152,-2.1151,0,-2.0686,-2.0759,-2.0817,-2.0837,-2.0888,-2.0914,-2.0937,-2.0974,-2.1002,-2.1042,-2.106,-2.1105,-2.113,-2.1165,-2.1184,-2.1164,-2.1253,-2.123,-2.1264,-2.1264,-2.1283,-2.1281,-2.1372,-2.1298,-2.1298,-2.1298,-2.1298,0,-2.0756,-2.0804,-2.0836,-2.0871,-2.0926,-2.0944,-2.0997,-2.1019,-2.1052,-2.1092,-2.1098,-2.1135,-2.1157,-2.1198,-2.1213,-2.1269,-2.128,-2.1291,-2.1295,-2.1291,-2.1289,-2.1307,-2.1303,-2.1301,-2.13,-2.1299,-2.1299,0,-2.081,-2.0833,-2.0896,-2.0939,-2.0951,-2.099,-2.1027,-2.1061,-2.1081,-2.1131,-2.1144,-2.1174,-2.1223,-2.1245,-2.1304,-2.1314,-2.1378,-2.1378,-2.1365,-2.1366,-2.14,-2.1396,-2.1504,-2.152,-2.1436,-2.1437,-2.1438,0,-2.0853,-2.0891,-2.0938,-2.0965,-2.0989,-2.1032,-2.1061,-2.1081,-2.111,-2.1158,-2.1187,-2.1235,-2.1275,-2.1352,-2.1379,-2.1425,-2.1426,-2.1461,-2.1433,-2.1428,-2.1427,-2.1425,-2.1429,-2.1466,-2.1467,-2.1468,-2.1468,0,-2.0927,-2.0937,-2.0978,-2.1024,-2.1059,-2.1096,-2.1132,-2.1154,-2.1179,-2.1212,-2.1262,-2.1293,-2.1354,-2.1402,-2.145,-2.1473,-2.1475,-2.1477,-2.1487,-2.1484,-2.1474,-2.148,-2.1379,-2.1474,-2.1473,-2.1473,-2.1473,-2.1472,-2.0977,-2.1011,-2.105,-2.1096,-2.1126,-2.116,-2.1195,-2.1219,-2.126,-2.1312,-2.1321,-2.1374,-2.1412,-2.1477,-2.1502,-2.1543,-2.1535,-2.155,-2.1554,-2.1557,-2.1559,-2.1468,-2.1552,-2.1552,-2.1552,-2.1552,-2.1552,0,-2.1051,-2.1077,-2.1119,-2.117,-2.1207,-2.1206,-2.1247,-2.1277,-2.1324,-2.136,-2.1399,-2.1456,-2.1503,-2.1535,-2.1583,-2.161,-2.1612,-2.1622,-2.162,-2.1625,-2.1564,-2.155,-2.1619,-2.1619,-2.1619,-2.1619,-2.1619,-2.1619,-2.1094,-2.1152,-2.1166,-2.1239,-2.1264,-2.1316,-2.1339,-2.1371,-2.14,-2.1464,-2.1503,-2.1523,-2.1558,-2.1608,-2.1652,-2.166,-2.1677,-2.1687,-2.1695,-2.1637,-2.163,-2.1623,-2.161,-2.1691,-2.1691,-2.1753,-2.1754,-2.1754]}]]